TimeCDT,TemperatureF,Dew PointF,Humidity,Sea Level PressureIn,VisibilityMPH,Wind Direction,Wind SpeedMPH,Gust SpeedMPH,PrecipitationIn,Events,Conditions,WindDirDegrees,DateUTC
12:58 AM,80.8,55.9,42,29.91,10.0,SE,12.7,-,N/A,,Clear,130,2013-07-06 05:58:00
1:58 AM,80.2,56.3,44,29.85,10.0,SE,16.1,-,N/A,,Clear,140,2013-07-06 06:58:00
2:58 AM,78.3,55.8,46,29.85,10.0,SE,16.1,-,N/A,,Clear,140,2013-07-06 07:58:00
3:58 AM,76.5,55.8,49,29.85,10.0,SE,10.4,-,N/A,,Clear,130,2013-07-06 08:58:00
4:58 AM,75.2,55.9,51,29.86,10.0,ESE,5.8,-,N/A,,Scattered Clouds,120,2013-07-06 09:58:00
5:58 AM,73.2,56.5,56,29.87,10.0,East,5.8,-,N/A,,Mostly Cloudy,100,2013-07-06 10:58:00
6:58 AM,70.9,56.5,60,29.88,10.0,ESE,5.8,-,N/A,,Scattered Clouds,120,2013-07-06 11:58:00
7:58 AM,75.7,57.7,53,29.88,10.0,SE,9.2,-,N/A,,Clear,140,2013-07-06 12:58:00
8:58 AM,81.7,57.9,44,29.89,10.0,South,12.7,-,N/A,,Clear,190,2013-07-06 13:58:00
9:58 AM,86.5,56.7,36,29.88,10.0,South,18.4,-,N/A,,Clear,190,2013-07-06 14:58:00
10:58 AM,85.6,56.8,37,29.87,10.0,South,15.0,-,N/A,,Mostly Cloudy,190,2013-07-06 15:58:00
11:58 AM,91.2,56.8,31,29.88,10.0,South,12.7,-,N/A,,Mostly Cloudy,190,2013-07-06 16:58:00
12:58 PM,94.1,55.9,28,29.86,10.0,SSW,13.8,-,N/A,,Scattered Clouds,200,2013-07-06 17:58:00
1:58 PM,97.7,54.7,24,29.83,10.0,South,13.8,20.7,N/A,,Mostly Cloudy,180,2013-07-06 18:58:00
1:59 PM,98.6,55.4,24,29.90,10.0,South,19.6,23.0,N/A,,Light Drizzle,180,2013-07-06 18:59:00
2:07 PM,96.8,55.4,25,29.89,10.0,SSE,16.1,26.5,N/A,,Mostly Cloudy,160,2013-07-06 19:07:00
2:58 PM,97.0,51.1,21,29.83,10.0,South,21.9,31.1,0.00,,Partly Cloudy,170,2013-07-06 19:58:00
3:58 PM,100.2,50.2,18,29.81,10.0,SE,18.4,29.9,N/A,,Partly Cloudy,140,2013-07-06 20:58:00
4:48 PM,100.4,50.0,18,29.85,10.0,SE,21.9,29.9,N/A,,Partly Cloudy,130,2013-07-06 21:48:00
4:58 PM,99.7,50.9,19,29.80,10.0,SE,17.3,-,N/A,,Clear,140,2013-07-06 21:58:00
5:58 PM,99.0,52.0,21,29.78,10.0,SSE,23.0,29.9,N/A,,Clear,150,2013-07-06 22:58:00
6:58 PM,97.3,51.8,21,29.78,10.0,SE,17.3,24.2,N/A,,Clear,140,2013-07-06 23:58:00
7:58 PM,95.2,53.6,25,29.79,10.0,SE,18.4,-,N/A,,Clear,130,2013-07-07 00:58:00
8:58 PM,90.7,53.8,28,29.81,10.0,SE,16.1,-,N/A,,Clear,140,2013-07-07 01:58:00
9:58 PM,87.8,53.2,31,29.84,10.0,SE,15.0,-,N/A,,Clear,140,2013-07-07 02:58:00
10:58 PM,86.5,54.1,33,29.86,10.0,SE,13.8,-,N/A,,Partly Cloudy,130,2013-07-07 03:58:00
11:58 PM,84.4,56.1,38,29.88,10.0,SE,13.8,-,N/A,,Scattered Clouds,130,2013-07-07 04:58:00